sat.trackr.live / text

‹ back to catalog

STARLINK-11237 [DTC]

NORAD 60934 · 2024-155L

PAYLOAD ACTIVE UNKNOWN

§ Identity

Operator
Country
US
Launch date
2024-08-31
Launch site
AFWTR
Launch vehicle
Mass (kg)
RCS (m²)

Purposes: comms

External: N2YO · Heavens-Above · Gunter

§ Orbital elements

Epoch: 2026-09-21T20:02:42.531072Z

Period
91.74 min
Inclination
53.1596°
Eccentricity
0.0001069
Mean motion
15.69705724 rev/d
Perigee alt
359.0 km
Apogee alt
360.5 km
Semi-major
6,737.9 km
B*
3.1704e-6
RAAN
94.0044°
Arg perigee
93.8507°
Mean anomaly
266.2633°
Rev number
11,922

§ Raw data

STARLINK-11237 [DTC]1 60934U 24155L   26264.83521448 -.00000204  00000+0  31704-5 0  99902 60934  53.1596  94.0044 0001069  93.8507 266.2633 15.69705724119221

JSON: /api/v1/satellites/60934 · /tle

For live sub-satellite position, see the globe view (requires WebGL).

§ Visibility from observer

Set your observer location to see the next 7 days of passes ≥ 10°. The values pass through the URL so the page stays shareable.

No JS? Fill the form by hand. The geolocation button needs JavaScript.